Location: El Corozo
(10.5833°N, 66.9667°W)
Time: 20:41:51
(UTC+00:00)

H-2A R/B - Pass Details

Date: 23 May 2024
Orbit: 732 x 832 km, 98.2° (Epoch: 22 June)

Event Time Altitude Azimuth Distance (km) Brightness Sun altitude
Rises 09:08:26 0° 356° (N) 3,366 5.6 -13.6°
Reaches altitude 10° 09:11:00 10° 347° (NNW) 2,430 4.7 -13.0°
Maximum altitude 09:15:48 33° 284° (WNW) 1,345 2.9 -12.0°
Enters shadow 09:20:15 11° 223° (SW) 2,302 3.9 -11.0°
